Wind_Speed
11 11 11 10 10 10 10 10 10 10 10 10 11 11 11 11 11 11 11 12 12 12 12 13 13 13 14 15 16 16 18 18 18 16 16 16 15 10 5 6 8 10 9 11 12 12 12 13 13 13 11 9 7 7 9 10 7 6 5 7 7 8 10 8 13 6 3 4 5 9 5 3 5 5 2 1 7 9 12 10 7 13 15 16 19 25 21 21
11 11 10 10 10 10 10 10 10 10 10 10 11 11 11 10 11 11 11 11 12 12 12 13 13 13 15 15 15 15 17 18 19 19 21 19 15 15 13 9 9 10 10 13 14 13 12 10 11 12 9 7 7 8 9 8 8 7 6 7 8 9 11 12 15 6 5 6 9 7 2 3 3 5 4 4 8 8 10 10 9 17 17 18 20 22 20 20
12 11 11 11 11 11 11 10 11 11 10 10 10 11 11 10 10 11 11 11 11 12 13 13 13 13 14 14 14 14 16 18 16 15 18 18 17 16 14 13 12 11 14 16 15 13 12 11 11 10 9 8 7 9 9 7 7 8 7 7 9 11 14 15 14 8 9 9 9 7 3 3 6 3 4 6 10 10 9 10 9 17 17 18 19 18 18 18
12 12 12 11 11 11 11 11 11 11 11 11 10 10 11 10 10 11 11 11 11 12 13 12 12 13 13 14 13 12 14 14 7 2 5 12 15 14 14 13 11 13 17 17 14 13 13 12 10 10 9 8 8 10 10 8 6 7 8 9 11 14 13 11 10 7 7 9 8 10 7 7 8 2 4 7 9 10 8 12 12 15 19 20 19 17 16 14
12 12 12 12 11 11 11 11 11 11 11 11 10 10 10 10 10 11 11 11 11 12 12 12 12 12 13 13 11 11 11 6 2 7 8 9 9 9 11 11 11 15 16 16 15 13 13 12 10 9 8 8 9 9 9 10 8 7 9 12 13 15 13 9 8 4 4 6 7 9 8 9 7 4 8 8 7 8 4 3 5 9 18 22 19 17 15 11
13 13 12 12 12 11 11 12 11 11 11 11 11 11 10 10 10 10 10 10 11 11 11 11 12 12 12 11 10 9 8 3 3 5 6 5 5 7 9 10 11 14 14 15 15 13 11 10 9 8 7 8 11 10 10 11 10 8 9 12 12 14 13 9 6 4 3 4 7 9 10 8 6 9 10 7 8 3 12 19 16 11 18 20 17 16 15 12
13 13 13 12 12 11 11 11 11 11 11 11 11 11 10 10 10 10 10 11 11 11 11 10 11 12 11 12 10 7 8 7 2 4 4 3 3 6 9 11 12 13 13 14 14 11 9 10 10 9 8 9 11 13 11 11 13 12 9 11 13 13 11 9 7 6 4 5 8 10 10 8 8 10 5 5 9 2 15 19 18 19 19 16 14 12 13 12
13 13 13 12 12 12 12 11 11 11 11 11 11 11 11 11 11 10 11 10 10 10 10 9 10 10 10 11 8 6 9 7 2 5 3 3 3 7 11 11 12 13 13 14 14 11 9 10 11 9 9 10 10 12 12 12 13 12 10 11 13 12 8 8 8 8 8 7 8 10 10 9 11 9 4 6 8 7 16 19 16 16 16 13 13 10 10 10
13 13 13 13 12 12 12 11 11 11 11 11 11 11 11 11 11 11 10 10 10 10 9 9 9 8 7 7 8 6 3 3 7 4 4 6 7 11 13 11 13 14 13 15 15 12 9 9 11 11 10 11 10 11 11 9 7 7 11 13 13 13 10 8 10 11 11 8 8 11 11 11 12 7 7 9 4 7 14 19 16 13 13 12 11 9 10 8
14 14 13 13 12 12 12 11 11 11 11 11 11 12 12 11 12 11 11 11 10 9 8 9 7 6 7 8 8 5 2 6 7 7 7 9 11 12 13 13 14 15 14 13 13 12 10 9 10 9 9 11 10 9 9 8 6 5 9 13 13 13 10 9 12 11 9 8 10 12 11 13 10 4 7 6 7 6 9 15 12 11 11 11 10 8 8 7
14 14 14 13 12 11 11 11 11 11 11 12 12 12 12 12 11 11 11 10 9 8 8 8 5 5 9 9 7 4 2 3 6 9 9 10 12 12 13 13 13 14 14 11 10 11 11 10 8 6 5 6 8 9 9 11 10 7 7 10 12 11 11 13 13 9 7 9 11 10 12 13 9 7 10 7 9 7 9 16 10 9 9 10 10 7 7 6
14 14 14 13 12 12 11 11 11 12 12 12 12 12 12 12 11 11 10 9 8 7 7 7 4 4 8 8 10 8 2 1 5 8 10 10 11 12 12 12 13 14 13 9 9 11 11 9 8 8 5 3 7 7 6 10 11 9 7 9 12 13 13 15 13 10 9 10 10 9 11 10 8 10 9 8 7 8 14 18 14 11 7 7 9 8 8 5
14 14 13 13 12 12 11 11 11 12 12 12 13 13 13 12 11 11 10 9 7 6 7 5 3 5 8 6 8 8 2 1 5 7 10 11 11 11 9 10 11 13 13 9 8 9 9 8 9 11 9 7 8 4 4 6 7 8 10 9 11 11 12 15 14 12 12 10 11 9 9 8 10 13 8 10 7 9 11 14 15 13 9 7 7 7 8 9
15 15 13 12 12 11 11 11 12 12 12 12 13 14 14 13 11 10 9 8 6 5 6 4 3 5 6 7 5 6 4 2 5 8 10 11 12 11 8 8 9 11 11 10 9 5 6 8 10 10 9 10 10 7 6 7 6 8 10 9 7 8 10 13 12 12 12 7 11 8 8 5 10 12 12 9 7 8 8 11 14 13 12 9 8 7 6 7
15 15 13 12 12 12 11 11 12 12 12 12 13 14 14 13 10 9 8 7 5 4 4 5 5 5 6 9 6 7 7 5 7 9 10 12 13 9 9 10 10 10 9 9 8 4 6 8 8 8 8 10 10 8 7 7 7 7 8 7 8 10 7 10 12 11 9 7 10 9 7 7 12 9 15 8 7 8 6 10 14 11 14 10 7 8 4 6
16 15 13 12 12 12 12 12 12 12 13 12 12 13 13 12 10 8 7 5 4 2 2 5 8 10 6 4 5 9 8 9 9 10 11 13 13 9 9 10 10 9 8 9 7 5 8 9 8 8 8 9 9 8 7 6 7 7 7 6 8 10 5 9 11 11 10 9 11 10 8 8 6 7 13 7 7 8 7 10 16 12 14 11 6 8 6 6
16 15 13 12 11 11 11 11 12 12 13 12 13 13 11 10 8 6 6 4 3 3 6 9 8 9 7 4 3 8 10 10 9 11 11 13 12 10 11 9 9 9 8 9 8 6 8 7 7 7 7 8 7 7 6 7 7 7 7 7 9 11 5 7 9 11 11 8 8 11 12 10 3 11 8 6 7 9 9 8 16 15 12 10 7 9 9 7
16 14 13 12 11 10 10 11 12 12 12 12 12 11 9 8 7 5 5 2 1 5 10 12 9 5 7 10 10 10 11 9 9 11 11 10 10 7 10 9 8 9 9 8 8 8 7 7 7 6 6 6 7 7 7 7 6 3 4 6 7 9 7 7 7 8 9 6 7 10 10 11 6 10 7 7 7 9 9 8 13 17 13 10 9 11 11 11
16 14 12 11 10 10 10 10 11 11 12 12 9 10 9 6 6 5 7 5 4 5 5 6 10 5 2 9 13 9 10 10 9 10 11 10 8 8 10 10 8 9 8 6 8 9 6 6 6 7 7 7 8 8 5 6 8 10 9 8 6 7 7 5 5 7 7 6 8 10 10 12 9 10 11 10 8 5 7 5 9 13 15 14 13 12 12 13
17 15 12 10 9 9 9 10 11 11 11 10 7 8 7 4 2 3 7 9 9 11 10 4 14 13 6 7 9 7 9 8 8 10 11 11 9 9 10 9 8 8 8 7 8 8 7 6 6 8 6 2 4 3 4 8 11 11 12 10 7 7 8 6 7 10 5 5 7 8 11 12 8 8 11 8 7 7 7 6 4 8 12 14 14 15 13 13
18 14 12 10 8 9 9 9 10 10 11 9 5 6 6 5 4 1 1 9 15 17 18 13 14 16 10 2 8 8 7 7 9 10 11 12 10 9 8 8 9 7 8 12 7 5 4 6 8 9 2 3 5 8 8 7 9 9 10 9 5 6 7 3 6 9 6 2 5 7 10 9 9 11 9 5 3 7 5 8 5 6 7 8 10 17 16 12
19 14 12 10 8 8 8 9 10 10 10 8 5 9 8 8 7 6 7 7 12 16 19 16 14 13 10 6 5 7 8 9 10 11 12 12 11 9 8 9 10 8 8 10 5 2 5 8 13 11 2 2 3 6 7 8 8 8 7 7 6 7 6 5 8 4 5 3 5 7 9 9 10 9 4 5 7 4 5 9 8 6 8 8 6 15 16 13
21 16 12 9 8 8 8 9 10 9 10 9 8 11 11 9 9 10 9 7 10 13 16 15 14 11 11 11 7 7 10 10 10 12 14 13 11 10 9 9 10 9 9 10 7 5 6 5 7 5 4 2 5 5 6 7 6 7 6 7 7 8 8 2 6 2 1 0 3 7 8 9 8 4 3 9 9 4 5 10 10 7 6 7 6 12 17 14
22 18 12 9 8 7 7 9 10 12 13 13 14 16 12 9 8 11 8 6 8 10 13 14 13 11 12 11 9 12 12 10 10 12 16 13 11 10 10 10 10 9 10 11 10 10 11 2 6 6 5 0 4 4 5 5 5 7 8 9 9 9 9 5 4 5 4 4 3 8 8 6 7 4 6 10 5 6 8 10 10 7 6 7 5 9 17 16
23 20 13 9 8 7 8 9 10 14 13 13 18 18 11 7 6 8 7 5 7 7 11 13 10 11 15 11 8 11 10 10 12 11 18 14 12 10 9 8 8 9 10 11 11 10 8 2 5 4 2 3 4 5 7 6 5 7 9 10 12 13 11 6 1 4 2 5 5 7 7 5 7 8 10 10 8 9 9 8 7 7 7 7 6 6 12 14
23 21 16 10 7 6 6 5 8 12 12 13 13 8 6 6 6 8 5 4 5 5 8 10 8 9 12 11 8 8 9 9 9 9 18 13 14 10 7 6 5 9 10 9 8 7 3 1 2 3 2 4 6 7 8 7 7 6 3 6 11 11 11 9 6 4 4 4 4 7 6 4 5 8 8 8 10 10 8 7 8 7 7 7 5 4 6 11
23 22 18 11 7 4 3 5 11 13 8 5 3 2 5 6 6 6 4 4 4 5 8 7 6 7 9 10 10 8 7 5 6 11 14 11 12 8 8 8 5 7 7 5 2 3 4 4 2 4 5 5 7 7 8 9 8 4 2 6 10 9 10 11 9 7 6 6 3 7 8 6 5 7 6 4 6 9 9 8 8 9 9 9 7 8 8 10
23 23 20 12 8 6 7 10 14 14 11 8 7 6 6 7 6 5 3 4 2 5 7 6 4 5 9 10 12 13 7 6 8 10 10 10 10 7 9 12 10 9 8 7 4 0 3 3 4 4 8 6 7 9 10 12 9 5 3 5 8 10 11 10 8 7 6 6 6 7 8 6 5 7 5 5 6 7 9 9 9 8 6 7 6 4 2 2
23 22 20 13 9 9 11 12 13 15 16 13 9 7 7 7 6 3 3 4 2 3 3 6 4 5 10 9 12 16 10 5 6 7 10 11 11 9 9 9 12 13 7 6 6 3 4 5 3 6 7 6 10 11 8 9 8 5 5 6 8 11 11 8 7 7 5 6 7 7 7 6 5 5 5 7 8 7 7 7 8 5 2 3 2 5 5 3
22 21 21 14 7 8 9 14 16 14 13 12 9 8 8 5 4 3 4 3 4 4 4 5 6 9 11 10 11 14 12 7 5 6 9 9 11 12 10 9 10 10 6 4 7 10 6 3 3 6 7 7 11 8 2 5 7 4 4 7 8 9 8 6 5 5 5 6 8 10 11 9 6 5 5 2 6 5 4 5 6 5 4 3 5 3 1 1
21 20 21 15 8 8 6 8 10 9 6 7 8 8 7 4 3 4 4 3 4 5 7 6 8 12 13 12 11 11 12 11 6 7 7 7 9 10 8 8 7 5 7 5 7 11 8 6 5 7 9 8 11 9 4 6 8 6 5 6 7 6 5 4 4 5 6 6 6 9 11 10 7 3 1 5 6 4 4 8 8 7 6 5 5 2 2 3
20 18 19 16 11 13 12 9 9 8 5 7 8 6 5 4 6 6 5 6 4 5 7 7 10 12 14 15 12 10 12 11 9 9 9 8 8 8 8 7 5 4 7 6 5 7 7 7 8 8 8 7 9 7 6 7 7 6 6 6 6 5 3 4 5 5 5 6 5 6 7 6 6 4 4 6 7 6 4 7 8 7 8 7 4 3 3 2
20 18 18 16 13 17 18 13 11 9 7 7 6 5 4 5 6 7 7 6 2 3 5 7 9 10 12 13 11 11 11 10 10 11 11 10 8 8 10 10 9 7 4 3 4 4 5 8 10 8 9 8 7 6 6 5 6 6 6 5 5 4 4 5 5 5 5 6 6 4 4 3 4 3 5 7 7 7 5 6 6 6 7 5 3 4 5 4
20 17 16 15 14 18 17 12 10 8 7 6 5 5 6 7 7 9 9 6 5 7 7 7 9 10 11 11 10 11 10 9 10 10 10 10 8 7 9 11 11 8 4 3 4 4 6 6 7 8 5 8 7 7 7 6 4 6 6 5 5 4 5 5 4 5 4 4 4 3 2 2 1 0 4 6 7 6 5 6 7 6 6 5 3 4 7 7
20 15 15 14 15 18 17 15 11 8 6 6 5 6 8 7 6 9 9 7 9 9 7 8 9 9 10 11 10 10 9 7 10 11 9 9 8 7 7 8 10 7 5 5 3 3 8 6 5 8 3 5 5 7 6 8 6 3 3 4 5 4 5 5 4 5 4 4 4 3 3 1 2 1 2 6 6 5 6 8 8 7 7 7 5 6 7 7
19 12 10 11 14 16 16 16 12 8 6 5 5 7 7 7 7 7 7 7 6 7 8 9 8 8 7 7 8 10 10 7 8 8 7 9 10 10 9 7 6 7 6 5 2 1 6 5 2 6 4 4 9 7 3 4 4 3 2 3 4 4 6 5 5 5 4 5 4 3 5 3 3 5 5 6 7 8 8 8 9 8 8 7 6 7 7 7
17 12 10 12 14 15 15 15 13 10 6 5 7 7 7 8 10 10 9 7 6 5 8 7 5 7 7 6 6 8 9 8 8 7 6 9 9 9 10 7 5 5 4 4 3 2 3 4 2 3 6 9 8 4 6 7 6 5 3 3 2 4 6 5 4 4 4 6 4 4 7 6 4 4 6 8 8 9 10 9 10 9 8 7 7 7 8 8
15 11 11 16 18 14 14 14 13 10 6 6 8 9 9 10 11 13 12 8 5 6 8 7 4 5 6 6 6 8 7 6 8 8 7 7 5 3 5 6 7 5 5 4 3 1 2 5 5 6 10 8 6 3 6 8 9 9 7 6 3 3 4 3 3 4 5 5 5 5 8 7 4 2 6 10 10 9 10 9 9 9 8 8 7 8 9 9
11 7 8 16 16 12 12 12 10 8 6 7 9 8 9 11 13 15 13 8 6 7 8 7 6 5 6 7 7 8 9 8 8 8 7 7 3 1 4 2 4 5 4 5 5 2 2 4 4 7 11 8 4 4 4 5 8 11 8 6 5 4 3 4 4 3 4 6 5 6 7 3 1 1 4 7 8 8 8 7 8 9 9 9 7 7 8 7
8 6 5 8 11 13 11 10 8 7 7 8 9 8 9 11 12 14 11 5 4 7 8 8 8 7 7 9 9 8 9 8 8 8 6 5 3 2 5 5 4 5 3 3 6 4 3 3 3 6 9 8 4 4 4 5 4 5 5 5 5 4 3 4 4 4 5 6 4 5 5 1 3 2 1 3 2 2 4 6 6 7 10 10 8 8 7 7
6 6 3 7 11 13 11 7 7 6 7 8 9 10 11 9 10 12 9 3 4 8 10 9 9 7 6 8 8 7 7 7 8 6 5 5 4 5 6 5 6 5 3 3 4 3 2 2 4 6 6 7 6 5 6 6 5 5 4 4 5 4 3 4 5 5 5 4 4 6 5 0 3 4 2 1 3 2 3 5 7 9 11 10 8 8 7 7
6 5 4 9 10 12 9 6 7 6 7 8 9 11 10 6 8 11 9 6 6 7 9 10 9 7 7 7 6 7 7 6 8 6 6 7 2 1 3 4 2 1 1 4 3 4 3 2 5 6 6 8 10 11 11 8 6 7 7 6 6 6 4 4 5 5 5 5 4 6 5 1 2 5 5 3 2 1 4 4 7 11 11 9 9 9 8 8
5 4 5 11 12 12 8 6 7 7 7 9 11 13 12 7 8 10 11 10 7 6 7 8 6 6 7 7 6 8 6 5 8 7 7 6 4 9 6 5 2 1 1 5 4 5 3 3 5 7 7 8 11 14 14 10 7 7 7 6 7 8 7 7 7 5 5 6 5 6 5 0 1 4 4 4 1 3 4 5 10 11 9 9 10 10 9 8
5 6 2 10 14 11 7 6 7 7 8 11 13 13 12 10 9 9 10 10 8 7 7 6 5 6 7 7 7 7 5 4 7 7 9 7 4 9 7 6 2 2 1 2 3 3 2 3 4 6 6 6 7 8 9 8 6 4 3 5 6 9 10 9 7 4 5 7 6 6 6 0 2 1 2 2 2 2 4 6 11 11 8 9 9 8 8 8
6 6 4 8 12 9 7 6 7 8 8 10 11 12 12 10 8 9 10 9 9 7 5 5 6 6 6 7 6 6 7 6 6 6 9 6 3 5 4 5 2 2 6 8 6 2 3 3 3 5 5 5 6 4 2 3 3 3 4 6 7 9 11 9 6 4 5 6 6 7 5 1 5 3 1 2 3 3 4 4 9 10 8 9 8 7 8 7
5 4 4 4 8 6 6 7 8 8 7 7 7 9 11 9 8 8 7 8 9 8 5 6 6 6 6 7 7 6 8 8 7 6 7 7 4 4 5 4 4 8 10 8 5 2 4 4 5 8 8 8 8 9 9 9 7 7 9 10 10 9 10 8 5 5 5 6 6 7 6 3 2 3 1 2 3 4 4 3 7 8 7 7 7 7 7 6
4 3 3 2 2 4 5 6 7 7 7 6 5 6 9 10 9 6 3 5 9 7 5 7 8 6 6 7 6 6 7 8 8 8 8 8 5 4 7 3 3 9 8 3 1 1 3 5 7 10 12 13 13 15 15 13 12 12 12 13 12 11 11 8 6 7 8 6 7 6 7 8 7 5 5 4 3 3 4 5 4 5 6 6 6 7 7 7
4 4 4 6 5 5 4 4 5 6 7 6 5 7 8 9 10 6 3 4 7 5 4 6 8 9 8 8 6 5 8 9 9 9 8 8 5 3 6 3 3 9 5 3 3 3 4 6 8 10 13 14 15 15 15 13 13 13 13 15 14 13 13 11 9 11 10 8 9 9 9 10 11 10 9 8 6 5 4 5 4 2 5 8 8 7 7 8
6 4 6 9 7 5 5 7 7 8 7 4 3 6 7 7 9 8 5 3 5 6 5 5 7 9 10 10 8 4 4 5 6 6 6 5 5 3 3 3 3 6 4 4 3 3 3 4 6 9 12 14 14 14 14 14 14 14 16 16 14 13 15 14 12 14 13 12 13 14 12 11 11 10 10 9 10 9 5 4 4 6 6 7 8 8 8 8
7 5 6 8 7 5 5 5 6 7 5 2 2 4 5 6 7 6 4 3 4 6 7 7 9 10 11 12 8 2 6 6 6 6 7 6 4 4 5 3 2 3 5 4 2 3 2 2 4 6 9 11 12 13 13 13 14 15 17 16 14 15 16 15 13 11 11 11 13 13 11 9 8 8 9 9 9 10 9 8 7 6 8 8 8 8 9 9
11 9 8 7 6 6 6 4 5 6 3 2 2 3 4 6 6 4 2 2 3 5 7 9 10 10 11 10 3 7 8 7 7 6 7 7 4 3 3 4 5 5 5 5 3 3 3 3 4 5 7 8 10 12 13 14 15 16 16 15 16 15 12 12 12 10 8 10 11 11 9 6 7 8 8 8 8 10 11 9 6 5 8 11 11 10 10 11
15 12 10 7 5 6 6 5 3 3 3 4 5 4 4 5 5 4 2 2 4 3 5 10 11 8 7 7 8 8 7 6 7 7 7 7 6 5 5 6 7 7 5 5 4 2 3 5 5 5 7 7 9 12 12 12 12 12 8 7 11 11 9 10 12 10 8 8 7 8 6 4 8 10 8 6 7 11 11 10 9 10 9 7 8 10 10 9
Wind_Direction
326 325 323 322 321 320 318 318 318 318 319 319 319 317 316 314 312 312 310 309 310 309 308 310 308 310 311 312 312 312 321 315 303 289 255 252 250 246 265 217 222 251 233 213 226 234 218 218 231 229 233 233 230 240 243 237 232 242 233 241 252 250 255 254 252 265 21 315 50 64 52 19 310 306 307 281 254 251 275 276 101 86 88 98 114 128 139 141
324 323 321 321 321 319 317 315 315 315 314 314 315 314 312 310 311 311 308 308 306 307 307 306 307 310 311 310 312 317 324 308 290 279 260 253 250 249 260 248 244 247 221 217 225 226 218 215 220 222 229 233 227 226 233 227 211 232 244 237 244 249 259 259 257 286 28 316 356 17 32 42 315 309 325 293 266 241 245 251 121 103 101 108 119 127 136 141
324 322 321 321 319 318 317 316 315 315 313 312 311 310 310 310 309 307 306 306 304 306 305 303 306 306 308 308 313 327 323 303 284 270 255 241 235 242 252 250 245 234 214 216 222 223 228 227 219 217 227 235 233 225 223 212 201 222 240 246 245 247 256 265 277 333 348 316 328 314 347 1 283 293 312 287 279 261 233 228 152 121 120 122 124 128 136 145
323 321 320 319 318 318 317 318 316 316 316 313 311 310 312 312 309 308 306 305 303 303 302 304 305 305 310 309 318 335 316 294 282 249 198 206 219 233 242 243 233 219 215 224 236 238 237 241 236 225 229 238 235 232 228 212 207 217 225 243 253 255 263 280 303 343 325 315 320 308 328 303 284 335 292 278 274 265 244 232 205 155 139 132 130 135 142 149
321 320 320 318 317 316 316 316 315 315 316 313 313 313 314 314 312 311 307 305 302 300 303 304 305 309 309 310 325 328 304 291 83 103 128 176 207 227 230 224 213 210 216 229 247 252 241 243 248 237 232 244 241 232 228 220 221 230 233 244 258 273 287 305 320 353 341 324 317 300 291 286 305 307 265 260 254 268 336 345 255 183 144 132 132 139 137 136
322 321 319 317 315 315 314 315 315 314 315 314 314 314 313 313 312 311 307 304 302 301 303 302 306 310 309 316 322 305 284 302 62 114 143 178 205 222 211 200 200 206 216 229 244 247 237 238 241 236 229 238 246 242 228 220 227 241 248 250 258 271 276 284 308 344 351 297 284 278 271 281 300 276 261 249 249 282 52 51 42 74 119 123 127 136 132 131
323 322 317 315 312 312 313 313 314 313 314 314 313 314 312 311 309 308 307 305 304 302 298 298 303 306 318 326 306 264 255 278 333 114 145 178 202 207 191 188 195 205 220 234 243 235 220 227 227 226 230 233 244 248 237 226 231 238 247 257 258 261 267 275 286 292 272 256 264 264 266 274 272 270 260 237 247 108 78 71 66 79 104 115 116 126 125 129
322 320 317 316 313 313 313 312 312 309 310 310 311 313 311 310 307 305 306 305 304 300 298 299 303 310 331 332 301 250 245 254 112 115 156 159 169 174 173 182 195 206 221 235 242 231 215 226 228 228 230 231 237 243 242 236 235 235 243 260 267 268 271 272 272 271 262 255 258 255 258 262 257 267 274 243 233 136 104 98 96 95 104 113 113 113 109 123
321 318 317 316 314 314 312 309 308 307 308 307 308 308 307 305 303 303 302 302 302 300 302 300 302 318 334 319 291 282 271 122 113 142 158 141 151 160 168 181 193 205 221 233 238 230 222 224 226 229 237 248 255 256 251 239 234 239 245 251 258 260 253 254 256 250 245 242 248 247 245 248 247 255 262 244 193 149 134 118 116 114 116 118 116 118 118 133
320 318 317 316 313 312 310 307 307 308 307 306 306 304 303 303 300 302 299 299 301 298 301 297 306 333 316 287 271 282 73 108 125 143 144 144 152 163 181 189 188 206 226 231 231 231 233 238 239 242 255 265 272 277 262 243 237 251 259 253 253 262 261 256 253 243 236 235 240 240 239 244 231 208 249 213 136 188 159 121 119 118 122 125 123 131 126 128
321 318 316 315 312 309 306 306 307 307 307 305 306 303 303 303 301 301 298 297 296 293 298 296 315 330 296 282 269 282 71 136 147 144 153 153 159 174 194 201 195 210 230 230 229 238 239 254 281 275 260 276 271 263 250 246 252 260 273 268 260 265 262 255 254 247 238 240 234 231 243 243 206 200 240 172 144 205 132 112 122 117 123 131 131 134 105 97
321 318 316 313 309 306 303 304 304 303 306 305 306 305 307 308 304 301 299 299 295 288 293 300 332 317 290 279 252 258 327 199 172 154 168 166 173 187 196 210 208 215 231 226 223 241 248 271 300 267 251 306 271 260 246 237 247 261 263 266 260 255 248 242 242 235 233 239 218 217 248 238 205 225 225 139 156 198 133 126 136 132 142 142 137 136 109 133
322 320 315 309 305 303 300 299 299 300 303 306 308 309 313 315 309 302 299 298 294 287 292 306 331 288 283 284 243 230 262 194 168 168 182 181 192 201 212 223 214 224 246 255 238 230 239 263 279 265 270 282 263 308 342 246 241 258 248 251 257 254 241 224 221 224 229 229 193 201 249 217 210 225 181 130 178 203 163 152 146 144 161 157 143 141 139 163
324 320 315 307 302 299 297 295 295 299 302 307 309 310 315 317 310 300 293 291 289 287 294 302 295 277 262 270 253 188 200 206 169 187 188 191 204 206 217 226 223 236 253 272 276 239 226 253 264 268 274 268 269 311 310 249 241 250 243 242 243 257 246 203 192 212 218 195 163 199 255 221 218 204 152 144 191 208 199 164 155 153 150 157 145 136 159 150
324 322 316 305 299 297 294 291 293 298 304 308 308 310 313 315 310 297 287 287 280 275 299 295 251 245 263 260 236 170 188 202 190 195 184 192 209 203 201 207 219 234 232 250 279 269 232 251 255 254 253 245 258 281 263 232 227 233 240 235 225 250 239 167 170 199 203 162 162 213 255 246 243 186 135 147 193 213 218 147 150 145 121 137 145 133 152 120
328 324 315 305 300 295 291 292 296 300 304 306 307 309 311 313 311 296 287 280 273 272 288 275 224 216 273 297 159 156 191 209 199 191 187 199 204 186 185 194 202 215 216 228 256 256 231 239 246 252 262 247 234 246 251 241 224 214 233 242 234 243 196 149 175 191 203 187 179 213 244 250 243 127 126 154 193 214 222 148 145 139 116 129 151 149 147 120
331 326 317 308 300 292 291 294 296 299 303 306 307 309 310 313 310 293 283 269 274 261 233 261 254 218 254 303 163 180 204 208 190 181 191 211 212 179 171 191 200 199 207 219 229 235 227 228 242 247 253 252 243 241 243 245 229 202 216 235 247 249 198 156 173 182 213 215 187 202 234 256 131 112 133 167 213 229 222 170 140 140 138 141 156 164 154 142
333 327 318 310 302 295 294 293 294 298 303 305 309 315 313 304 306 301 276 250 269 251 241 257 271 257 249 246 231 209 199 191 178 184 190 210 231 199 178 201 199 191 208 217 214 220 219 218 234 244 235 231 236 239 241 248 259 289 259 233 239 254 231 194 171 173 201 207 213 210 225 253 187 148 170 177 223 246 228 197 144 142 148 152 169 176 167 160
336 330 322 315 308 299 295 294 295 298 300 304 314 325 318 297 297 278 236 216 194 217 239 211 204 242 280 205 215 200 175 173 174 191 192 195 225 218 200 212 206 203 217 209 198 206 214 217 230 241 231 228 229 228 255 304 332 342 312 270 242 253 245 222 136 143 186 194 213 224 222 234 210 172 182 183 188 227 250 226 153 150 149 160 178 177 172 163
341 334 327 318 311 304 298 296 296 297 298 302 317 312 294 283 269 216 205 215 220 237 274 235 191 225 257 173 176 145 138 168 188 200 197 191 210 217 209 219 224 217 229 232 200 192 223 234 236 240 236 278 299 315 345 337 338 330 307 286 247 231 237 216 141 142 187 238 215 231 238 232 224 204 205 205 165 168 255 273 186 180 165 174 182 170 168 160
345 338 331 322 315 307 299 298 296 296 296 297 305 276 274 332 346 2 232 228 227 235 257 262 214 224 261 201 147 149 163 188 202 208 197 190 206 216 198 210 229 213 223 243 220 158 225 252 248 245 262 26 342 354 353 333 328 316 303 299 279 247 244 190 125 138 143 271 268 264 264 245 223 223 227 251 189 153 223 273 250 213 201 208 186 164 163 155
349 343 335 327 319 310 305 302 295 292 294 288 266 249 272 339 354 336 319 269 246 234 236 248 239 234 255 258 186 184 205 193 198 208 193 187 205 212 185 191 226 222 212 234 238 182 214 245 252 241 123 57 317 347 335 320 315 299 290 288 290 281 265 114 104 140 142 159 260 261 265 264 241 232 243 254 245 186 193 252 261 227 217 238 195 156 155 156
352 345 336 329 320 313 307 301 295 290 279 256 242 254 280 326 343 329 313 285 274 247 227 226 237 240 230 232 219 213 228 209 198 198 183 188 209 216 211 208 224 230 220 213 214 244 236 221 241 229 95 30 304 319 307 305 290 274 279 272 269 267 262 185 131 180 308 95 275 278 281 293 282 265 279 253 233 186 198 238 252 238 216 239 225 150 149 160
354 347 337 326 318 312 306 303 290 277 264 248 250 262 284 320 334 333 321 277 273 260 236 217 220 233 222 220 209 208 230 229 213 190 172 189 215 212 225 237 239 243 239 220 201 235 261 238 107 100 85 345 290 291 268 274 266 252 249 254 266 265 268 288 117 112 341 318 285 285 285 283 270 227 239 255 210 171 217 232 235 230 212 230 237 151 152 163
355 349 336 319 312 305 304 301 276 264 254 245 253 256 274 319 339 336 328 278 265 249 232 214 208 224 215 204 196 207 225 237 242 197 164 188 221 208 216 234 244 246 242 239 221 224 258 318 107 135 171 215 245 259 239 234 260 254 236 239 260 276 291 307 125 134 267 266 217 234 258 251 243 230 227 234 202 194 224 228 224 228 213 216 222 169 152 154
354 350 339 316 299 304 302 294 281 270 247 237 248 253 287 322 352 339 311 266 268 224 196 187 184 206 204 186 181 215 230 233 245 174 154 192 226 225 237 224 226 252 259 266 243 220 222 204 227 259 272 251 250 254 244 233 248 263 279 267 253 264 286 284 265 247 247 263 199 193 242 265 249 254 248 229 206 197 211 222 221 224 214 210 217 197 151 146
350 348 341 315 280 290 279 291 314 302 273 260 282 309 318 333 354 333 287 263 262 197 169 164 165 180 190 179 177 212 233 203 192 156 151 197 218 225 253 236 221 239 255 281 263 253 259 191 164 292 277 256 256 253 239 230 239 259 350 299 270 257 263 260 258 258 254 277 244 189 234 266 260 267 272 246 213 192 197 214 220 222 210 196 202 205 190 171
346 344 343 319 267 254 256 284 310 293 287 343 354 311 329 0 342 305 272 273 235 168 166 164 141 174 197 185 185 217 226 160 175 161 157 198 207 214 239 243 264 267 238 235 226 318 282 200 151 246 255 251 256 255 243 230 227 227 233 278 281 270 263 257 253 251 255 275 261 225 237 249 252 262 246 210 211 207 204 205 213 228 212 190 198 187 135 128
344 341 340 324 272 255 258 266 282 275 282 313 330 321 337 346 318 269 255 274 203 159 168 166 150 191 210 187 190 226 231 177 193 173 168 196 208 225 251 257 278 289 263 212 228 250 254 248 241 244 245 245 245 245 249 246 238 241 276 299 287 271 268 263 263 264 259 260 263 259 253 253 259 259 241 201 194 215 218 194 196 211 187 144 106 55 36 13
341 337 335 326 265 253 260 246 257 270 280 294 311 324 315 293 286 249 239 247 210 197 153 154 182 192 203 198 196 223 232 219 213 173 174 194 204 221 262 279 275 287 279 210 243 257 227 197 284 273 254 254 259 255 246 259 262 252 260 276 265 255 256 254 265 276 265 252 253 255 251 252 259 259 268 216 164 194 209 166 166 184 174 110 75 55 337 343
335 332 328 317 254 246 262 241 263 277 268 297 320 314 288 249 240 244 237 271 263 209 158 167 202 189 195 211 208 205 217 226 202 167 186 198 201 211 235 255 251 268 271 239 237 253 237 182 192 243 252 265 275 279 271 249 258 259 247 266 269 252 248 255 250 248 254 254 251 261 257 243 242 257 350 76 113 162 181 160 168 169 147 110 83 84 32 34
327 324 316 302 263 246 249 264 312 323 315 329 325 285 264 244 236 230 243 286 286 202 187 205 209 193 195 213 218 199 206 225 204 190 210 204 198 209 213 225 216 220 253 248 224 241 259 248 221 204 204 238 265 267 256 237 233 248 247 249 263 257 247 258 251 236 248 260 259 287 288 248 239 235 159 128 147 177 146 138 166 158 122 113 109 104 79 45
319 315 303 292 266 244 243 261 297 317 329 321 294 259 249 247 245 239 245 264 257 211 232 231 214 201 198 210 219 203 203 223 212 203 212 208 202 204 215 225 212 208 239 271 263 239 244 263 255 224 181 190 237 251 248 232 202 221 243 239 246 252 248 250 253 244 246 261 257 270 296 264 257 245 164 150 151 154 129 107 122 116 104 117 142 128 109 75
314 305 290 283 264 245 241 247 269 296 311 289 264 247 239 238 253 264 261 245 234 254 263 248 226 210 208 219 216 200 208 226 218 213 209 207 215 207 214 233 226 219 232 232 250 250 246 253 239 230 171 156 209 245 264 283 252 221 236 244 236 234 249 254 262 264 267 292 281 249 263 261 246 6 116 123 117 127 144 120 107 111 121 129 123 100 92 77
313 299 280 272 258 246 237 233 246 270 279 268 254 238 235 240 247 254 260 243 230 245 256 253 241 222 218 225 218 205 216 228 213 217 223 213 224 220 209 232 233 228 243 236 215 227 254 266 218 211 139 121 229 252 264 285 286 247 228 238 234 230 250 259 269 278 291 306 287 239 246 251 137 206 139 126 136 153 152 137 140 154 144 127 108 92 87 83
319 305 270 250 245 243 233 226 229 233 242 255 251 240 235 244 250 249 271 283 269 259 256 251 243 240 234 225 228 214 203 217 218 216 228 223 225 226 211 211 213 211 236 256 278 243 255 283 218 184 167 214 253 273 271 262 294 313 265 246 256 253 254 258 262 266 262 263 265 240 248 233 174 208 189 167 181 171 153 152 156 150 128 117 109 99 93 88
321 305 270 246 241 233 219 215 211 209 230 252 245 251 250 247 254 257 267 286 304 295 272 257 235 242 243 223 239 226 188 195 224 224 233 227 222 225 211 185 164 204 258 296 298 290 265 286 281 219 233 227 228 280 292 275 283 288 267 254 244 240 252 264 269 263 252 255 257 243 252 246 228 225 181 187 197 172 168 173 151 134 127 120 108 101 100 98
309 298 281 262 248 221 199 202 204 207 230 251 244 254 261 260 263 267 272 281 284 267 258 258 237 233 247 232 232 234 211 203 223 229 232 220 212 247 225 177 156 203 278 308 279 257 248 272 275 266 267 240 176 198 268 262 253 251 272 302 292 254 259 257 254 260 261 266 269 259 260 258 257 246 177 188 198 186 189 182 155 151 145 125 111 107 104 102
284 275 275 257 238 196 179 190 203 220 233 243 246 245 252 258 259 263 274 293 298 276 261 262 251 228 244 250 237 234 232 229 229 234 233 214 191 330 281 226 165 192 250 270 265 272 265 279 278 267 278 273 188 192 253 258 233 225 241 275 273 271 279 259 249 261 264 269 276 270 270 277 307 206 179 192 201 201 200 180 165 162 141 122 117 112 102 100
268 262 265 230 195 166 166 185 204 229 233 237 248 250 254 258 257 259 262 264 287 278 268 269 262 243 234 241 243 243 241 240 237 239 243 225 167 182 239 248 225 194 177 248 273 288 279 278 275 271 284 286 246 215 264 296 289 244 233 244 250 249 260 266 264 261 265 270 280 282 279 326 47 44 136 179 188 235 222 184 164 138 121 115 114 110 101 99
278 277 239 169 164 163 167 189 215 230 235 237 245 250 260 272 277 280 280 262 262 271 274 278 278 282 267 247 242 241 246 254 250 247 254 242 216 212 211 207 231 224 170 219 255 289 295 271 270 272 274 272 262 249 259 275 293 299 290 275 283 285 273 274 271 268 279 285 286 287 284 13 27 2 360 115 87 28 264 199 149 120 114 112 109 111 106 102
258 265 175 147 160 171 179 216 225 224 234 240 245 246 251 273 282 280 277 251 237 253 265 268 269 279 277 265 259 249 246 254 252 249 255 252 237 114 152 144 175 289 5 281 293 41 25 293 275 271 265 273 279 278 278 275 271 285 288 279 287 294 286 270 270 281 296 296 292 292 294 32 6 332 336 344 78 134 256 214 133 117 117 118 118 119 116 109
242 257 147 151 170 182 204 242 230 226 239 246 253 253 251 258 266 268 268 259 245 239 249 257 261 264 260 257 259 256 250 254 259 260 260 257 94 89 97 96 92 83 4 286 311 39 23 271 262 270 274 281 279 274 274 267 245 252 269 276 282 286 282 273 278 296 295 286 289 285 280 32 17 325 347 351 326 180 200 165 128 121 125 131 128 123 122 118
287 288 195 170 180 194 219 239 235 238 241 244 252 258 260 261 261 263 265 263 256 246 249 264 272 270 268 266 261 259 254 242 248 255 259 257 106 103 105 89 67 269 51 11 10 34 311 248 240 261 275 276 264 251 253 253 245 246 279 298 297 294 290 277 274 290 286 281 284 279 278 110 109 319 344 323 290 229 211 162 132 130 136 137 135 132 130 129
303 279 253 185 180 201 229 238 249 252 253 259 261 264 264 257 253 263 275 283 282 277 282 285 282 286 284 277 266 256 258 259 249 249 257 252 130 120 127 107 89 6 45 45 38 7 286 278 273 269 268 270 268 267 291 319 321 312 301 291 290 303 309 301 285 273 270 282 281 273 284 138 148 168 185 271 276 273 257 183 140 138 145 141 139 140 138 138
302 270 271 210 182 208 239 242 255 259 266 276 274 271 267 258 249 252 269 285 279 279 290 281 278 294 289 282 284 270 264 269 263 250 255 253 216 147 140 135 109 81 62 40 24 338 290 282 278 273 270 275 284 297 316 328 314 292 286 283 277 282 294 299 294 272 278 300 290 278 298 315 196 179 173 271 272 281 280 214 158 149 154 149 142 146 150 148
296 288 324 335 253 246 240 238 250 256 261 261 256 262 262 260 257 236 200 272 273 271 281 278 274 276 272 273 285 286 279 279 273 260 252 257 261 114 114 139 122 99 81 24 310 251 277 262 259 265 268 272 279 288 297 300 291 285 287 287 285 286 287 289 286 279 283 285 273 281 313 318 313 321 338 348 319 274 276 264 213 158 157 164 156 161 166 158
338 308 9 15 323 275 277 306 303 296 292 280 272 276 270 266 265 245 198 268 288 281 261 272 274 268 266 264 259 264 273 273 276 276 266 261 266 131 134 179 131 108 109 263 232 204 247 258 259 263 266 268 273 278 281 281 281 281 280 278 279 281 279 273 269 270 274 275 275 288 301 296 296 303 309 319 310 278 256 266 280 245 185 178 172 182 185 173
2 331 2 2 323 290 323 340 325 310 307 305 298 288 280 276 275 271 263 276 305 304 285 280 281 272 269 267 262 273 298 296 298 307 313 304 292 287 255 222 149 138 182 238 228 197 223 255 267 274 276 276 276 278 283 286 285 283 280 279 279 277 274 274 275 273 271 273 277 283 285 281 284 296 302 308 307 297 272 241 264 278 253 212 189 197 208 201
355 345 349 339 320 311 324 325 302 290 291 284 288 291 289 288 281 272 270 276 312 320 314 305 302 299 288 272 266 4 40 17 353 349 355 345 318 305 302 297 294 258 248 254 240 166 167 260 290 297 288 283 284 285 285 284 282 281 282 285 288 286 282 282 283 282 281 279 280 286 291 290 293 300 300 297 295 291 276 252 234 239 249 240 219 216 228 235
349 345 338 322 324 327 315 300 279 279 296 337 341 334 314 303 297 282 277 323 326 336 339 328 324 323 309 293 323 46 40 17 358 350 346 331 313 313 312 309 314 299 280 273 258 165 164 251 295 301 281 278 285 284 282 285 285 281 280 285 285 280 282 286 278 268 273 281 283 284 286 299 320 314 295 289 301 306 299 292 294 288 261 242 233 234 235 240
352 344 338 324 315 308 299 299 309 323 345 347 349 342 310 298 306 316 355 345 291 299 12 351 328 314 320 348 28 30 2 343 338 333 331 317 298 294 286 280 287 291 286 281 273 247 239 253 270 276 275 285 290 290 299 301 290 281 286 304 298 290 303 312 297 286 289 293 289 282 282 331 351 337 320 325 342 334 323 324 335 335 319 288 268 260 240 224
Height
789 788 787 786 785 785 784 783 782 781 780 780 779 778 777 776 775 775 774 773 772 771 771 770 770 769 768 768 766 765 764 762 760 758 755 750 749 749 749 750 750 751 751 751 751 750 748 748 747 745 745 744 743 742 739 735 733 738 747 755 755 749 739 727 721 716 716 715 714 714 714 722 724 716 708 709 715 715 715 708 708 715 718 721 725 731 736 739
788 787 786 785 785 784 783 782 781 780 780 779 778 777 776 775 775 774 773 772 772 771 770 770 769 769 768 767 766 765 763 762 759 754 748 746 748 748 748 749 750 750 751 751 749 747 746 746 744 743 744 744 741 739 739 734 733 742 747 752 751 741 728 716 710 707 713 717 717 716 717 721 723 719 712 718 722 716 720 716 714 723 725 726 729 734 739 741
787 786 785 785 784 783 782 781 780 779 779 778 777 776 775 775 774 773 773 772 771 771 770 769 769 768 768 767 765 765 764 761 757 748 742 743 746 746 747 748 748 749 749 749 747 745 744 742 740 741 744 745 740 737 739 734 734 740 744 750 743 729 721 711 705 706 712 715 718 719 716 721 720 715 716 722 724 719 720 718 719 728 730 730 732 735 741 744
786 785 784 783 783 782 781 780 779 779 778 777 776 776 775 774 773 773 772 771 771 770 769 769 768 768 767 766 765 765 764 761 751 741 739 742 744 745 746 747 747 748 748 748 747 744 742 739 738 739 743 745 739 736 738 734 735 737 740 746 734 722 720 712 707 710 714 715 719 720 720 723 716 713 719 722 727 724 716 711 712 720 725 728 732 736 741 746
785 784 783 782 782 781 780 779 778 778 777 776 776 775 774 773 773 772 771 771 770 769 769 768 768 767 767 766 766 765 766 761 745 738 741 742 743 744 744 746 747 747 747 749 747 743 741 739 738 739 743 745 741 737 737 731 731 735 735 734 727 723 723 715 710 713 716 718 722 723 725 723 715 716 719 720 728 725 714 708 702 703 714 724 729 735 739 745
784 783 782 781 780 780 779 778 778 777 776 775 775 774 773 773 772 771 771 770 769 769 768 768 768 767 766 765 765 766 766 757 741 739 742 741 742 743 744 745 745 746 748 748 745 742 740 739 741 744 744 745 743 738 735 727 727 737 734 727 725 723 724 717 713 716 719 723 727 726 722 717 719 722 715 715 721 716 712 711 706 703 712 722 728 734 739 745
783 782 782 780 779 779 778 777 777 776 775 774 774 773 772 772 771 771 770 769 769 768 768 767 767 767 766 765 764 765 763 751 738 740 741 740 742 741 743 745 745 747 747 747 744 741 740 742 743 743 744 745 742 736 731 726 726 734 735 728 724 721 720 718 716 718 720 725 726 721 719 719 725 723 713 715 714 710 713 715 716 717 719 726 731 736 739 744
783 782 780 779 778 777 777 776 776 775 774 773 773 772 772 771 771 770 769 769 768 767 767 767 767 766 766 765 763 760 756 746 738 740 740 740 741 741 744 744 745 747 746 746 742 738 739 742 742 740 744 742 736 733 727 727 727 729 733 729 724 720 718 717 718 720 720 722 721 720 722 723 721 717 715 716 710 709 716 718 722 725 728 733 737 742 743 746
782 781 779 778 777 777 776 775 775 774 773 773 772 772 771 770 770 769 768 768 767 767 766 766 767 766 766 766 764 759 747 739 739 740 740 740 741 742 744 744 746 746 745 744 739 737 738 739 738 735 739 735 730 729 724 729 732 727 729 728 724 722 718 718 719 719 720 720 720 722 725 721 713 714 718 713 708 710 714 720 725 728 733 737 741 745 747 749
781 780 778 777 776 776 775 774 774 773 772 772 771 771 770 769 769 768 767 767 766 766 766 767 766 766 767 765 764 759 743 737 740 740 741 741 741 743 744 744 745 745 743 740 737 735 735 735 732 728 732 732 729 729 725 729 729 723 725 724 722 721 717 718 719 716 718 718 718 723 725 719 709 717 723 711 707 709 712 721 725 729 735 738 742 744 747 752
780 779 778 776 776 775 774 773 773 772 772 771 770 770 769 768 768 767 766 766 766 766 766 766 766 766 767 765 763 755 740 738 741 740 742 742 742 744 744 744 743 743 741 737 736 734 732 731 727 728 733 733 731 730 726 724 722 720 724 726 723 722 720 719 719 716 718 719 716 718 722 716 710 719 720 708 707 710 716 726 729 733 738 739 742 744 748 752
779 778 777 776 775 774 773 773 772 771 771 770 770 768 768 767 767 766 766 765 765 766 766 766 766 767 767 764 758 748 739 740 740 740 742 742 743 743 742 743 741 741 738 735 735 733 732 730 729 734 734 732 733 732 726 719 720 722 725 732 729 724 723 720 718 717 718 719 712 715 727 723 717 718 710 705 708 709 717 728 731 737 739 740 744 747 752 757
779 777 776 775 774 773 773 772 771 771 770 769 768 767 767 766 766 766 765 765 765 765 765 766 766 766 768 761 746 740 740 739 740 740 742 742 742 742 741 741 740 740 737 734 733 732 733 732 733 735 730 732 734 729 723 717 721 726 726 732 732 729 726 715 714 716 716 715 707 718 738 732 719 713 705 705 709 709 716 725 730 737 740 742 746 749 755 759
778 776 775 774 773 772 772 771 771 770 769 769 768 767 766 765 765 765 764 764 764 765 765 765 766 767 768 755 739 739 740 739 740 740 740 741 741 740 741 740 740 740 738 736 733 731 734 733 733 734 731 732 730 724 725 725 726 729 730 730 731 736 725 707 710 715 716 712 705 720 740 730 713 706 703 705 709 711 716 722 726 733 739 744 746 750 753 755
776 775 774 773 772 772 771 770 770 769 769 768 767 767 765 765 765 764 764 764 764 764 764 765 765 765 763 750 737 738 739 738 739 738 739 740 739 738 739 740 740 739 738 737 735 733 734 734 735 737 733 728 727 731 733 731 727 728 736 737 730 730 720 707 709 712 715 714 708 723 738 728 710 701 702 705 708 711 716 722 725 729 738 744 745 748 751 753
775 774 773 772 771 771 770 770 769 769 768 767 767 766 765 765 764 764 764 763 764 764 764 765 763 763 761 747 736 737 739 737 736 737 738 737 736 736 737 739 738 738 738 737 736 734 734 735 735 735 733 729 730 736 736 735 732 726 733 738 728 721 718 716 712 706 709 714 714 723 732 725 710 702 704 706 709 712 715 722 728 732 738 743 744 746 750 755
774 773 772 771 770 770 770 769 769 768 768 767 766 765 765 764 763 764 763 763 764 763 764 762 758 761 756 742 738 738 735 734 734 735 736 735 734 733 735 737 736 736 736 735 736 735 734 735 736 734 733 733 730 731 742 747 739 727 726 730 723 715 715 719 717 707 704 711 717 721 725 721 711 708 709 708 710 713 714 720 730 735 736 740 744 745 750 755
773 772 771 770 770 769 769 769 768 768 768 767 766 765 765 764 763 763 763 764 764 764 765 760 759 764 753 738 737 735 730 731 732 733 735 735 733 732 734 734 733 735 736 737 736 735 736 735 736 738 735 735 731 732 746 746 731 728 727 725 722 714 711 715 715 709 706 714 720 722 724 720 712 710 712 710 710 713 714 716 726 734 736 740 743 745 748 752
773 771 770 770 769 769 769 768 768 768 767 766 766 765 764 763 763 763 763 763 762 762 759 753 755 757 744 732 730 727 727 730 731 733 733 733 734 732 732 732 731 734 739 741 739 735 736 737 738 743 740 734 730 729 735 732 724 728 725 719 719 718 714 709 708 707 708 718 723 721 724 719 712 711 712 709 709 714 716 713 720 730 737 741 742 742 744 748
772 771 770 769 769 769 768 768 768 767 767 766 766 766 764 761 760 760 760 760 756 749 743 740 743 741 732 726 724 725 728 730 731 731 731 732 733 732 732 732 732 735 740 741 738 731 731 741 743 740 736 730 726 724 727 727 726 728 726 719 716 719 717 708 707 708 708 719 722 717 719 715 711 712 709 707 707 714 719 718 719 724 732 737 738 740 742 745
772 771 770 769 769 768 768 768 767 767 767 766 766 766 760 754 754 757 755 752 746 740 738 735 732 731 727 723 722 725 729 732 731 729 730 731 731 735 734 734 738 741 739 735 732 729 733 745 742 730 728 727 726 726 726 729 730 732 731 725 719 719 714 707 710 709 710 723 725 717 719 716 712 712 707 706 710 716 721 722 722 721 725 727 730 736 740 743
772 771 769 769 769 768 768 767 767 767 766 766 766 764 756 750 752 752 751 750 741 734 734 731 728 727 724 722 721 723 728 733 733 729 728 729 731 736 734 734 741 740 734 732 732 736 742 744 733 723 723 726 727 728 729 731 733 735 733 731 730 722 713 714 716 712 713 726 730 724 724 721 711 708 708 710 713 716 718 721 721 721 723 724 725 733 739 742
773 770 770 769 768 768 768 767 767 766 766 765 764 760 754 751 751 749 750 752 743 730 728 729 729 728 725 724 722 723 728 730 732 728 724 728 731 732 732 734 736 733 731 732 736 743 745 736 724 719 722 727 730 730 732 735 735 737 735 736 736 723 718 724 723 718 716 721 728 727 729 726 716 710 714 713 711 713 717 719 718 717 721 723 722 729 736 740
773 771 770 769 769 769 767 767 767 765 763 762 761 756 753 752 752 752 751 751 745 731 723 722 724 725 724 722 719 724 728 724 723 723 720 726 729 728 731 730 730 732 728 724 729 737 735 724 717 720 725 729 733 734 735 740 740 736 734 736 734 722 719 723 723 723 724 724 727 732 741 737 724 723 723 715 711 715 718 718 718 717 719 721 721 726 733 737
773 771 770 769 769 768 768 768 764 762 761 760 758 753 752 753 751 752 753 754 749 732 722 720 720 720 717 717 719 720 724 721 716 713 714 722 725 726 727 724 727 732 725 720 724 729 728 721 717 723 727 728 734 737 734 740 743 738 731 729 728 724 720 722 725 729 739 742 731 734 757 751 727 724 726 717 715 720 719 718 721 720 719 721 722 725 731 735
773 772 769 769 769 768 769 766 761 761 759 756 753 751 753 753 752 754 755 760 754 733 725 724 722 719 713 716 718 717 727 724 709 706 712 719 718 720 726 723 723 727 723 718 717 719 722 721 720 725 728 730 735 736 731 733 742 742 731 722 722 724 725 727 728 734 747 748 729 729 755 758 736 725 721 715 717 720 721 721 722 722 721 723 724 725 729 735
773 771 770 769 768 769 769 764 761 759 754 752 750 752 753 752 753 753 758 772 761 732 725 726 722 718 714 715 715 723 736 724 708 708 712 717 715 716 727 726 722 724 719 721 727 724 719 721 726 728 730 735 737 735 728 726 738 742 730 722 723 724 728 728 729 736 739 736 730 728 740 754 749 732 718 715 720 723 724 726 724 722 721 722 724 724 726 731
773 771 770 768 767 769 767 765 764 758 754 753 751 754 753 752 755 754 768 786 758 721 720 722 718 716 713 712 714 721 724 714 717 717 708 715 717 718 728 726 722 721 713 724 740 730 720 724 730 730 734 738 734 729 722 720 731 732 723 722 724 724 726 725 727 734 732 738 748 737 732 752 755 733 717 718 725 728 728 727 726 722 720 721 722 724 725 727
773 770 769 768 767 767 766 767 765 758 756 755 754 755 753 754 756 756 778 786 745 714 716 718 718 718 714 714 718 718 713 711 721 716 708 716 717 717 726 722 720 722 712 719 732 726 719 720 722 726 734 734 727 720 715 717 723 721 719 723 726 725 724 724 730 733 736 751 759 743 735 753 756 735 723 725 729 732 729 727 726 723 723 723 725 727 729 730
772 770 769 767 767 766 765 765 761 757 756 755 756 755 754 757 759 771 790 774 735 717 715 716 720 719 718 721 723 720 717 716 715 712 714 719 717 718 721 717 718 722 717 718 725 721 714 715 718 724 727 724 719 715 713 716 718 717 723 729 730 728 724 727 732 735 749 763 757 742 734 747 757 742 727 725 726 727 728 728 728 726 726 727 729 732 731 732
771 769 768 767 766 766 764 762 757 756 756 756 757 755 756 758 761 783 786 749 727 723 714 718 721 714 719 726 725 721 721 719 714 718 723 721 722 724 724 724 724 728 730 727 726 721 714 718 723 722 719 718 719 719 716 716 716 720 727 733 738 737 734 741 742 744 765 769 750 736 729 739 757 748 731 726 721 721 725 728 730 729 730 731 733 733 733 734
769 768 766 765 764 764 762 759 756 757 757 757 758 755 760 767 769 777 766 740 740 733 715 718 717 711 719 722 721 720 721 721 715 719 724 724 727 727 729 731 729 740 747 736 731 728 723 721 717 716 717 718 724 727 723 719 719 726 731 739 751 756 758 767 764 761 770 763 742 733 733 741 748 737 728 726 722 721 722 723 727 728 731 734 734 735 736 737
767 765 764 762 762 761 759 758 758 759 757 757 759 755 762 778 775 760 746 743 745 728 710 713 710 708 716 719 720 717 718 721 715 716 720 720 726 726 725 723 720 735 745 738 737 739 736 727 715 716 718 716 723 731 732 727 723 729 733 740 755 766 777 784 774 768 769 758 740 734 740 749 745 731 723 722 721 721 720 722 726 728 733 736 734 734 737 738
763 762 761 759 759 758 757 758 758 758 758 757 759 760 769 781 769 748 740 738 734 722 713 712 709 710 715 717 717 713 718 722 714 715 719 719 727 729 727 722 715 722 731 737 741 742 748 743 724 719 718 715 720 723 725 723 721 725 723 731 748 758 772 780 774 771 769 759 746 741 748 754 752 739 722 718 721 720 722 725 728 732 734 735 734 735 738 741
761 759 758 756 756 755 755 757 757 758 759 757 759 764 772 773 759 746 738 726 722 722 715 709 709 714 716 714 711 708 716 722 714 715 719 720 726 727 725 724 718 718 728 738 739 735 746 742 718 711 712 714 720 716 713 720 726 721 714 728 743 742 749 760 762 759 760 764 759 751 749 743 741 736 720 719 725 722 725 728 730 735 734 735 739 739 742 744
759 757 756 754 753 752 753 755 756 757 757 757 763 766 763 756 745 737 728 715 714 717 717 716 715 719 723 718 714 710 712 718 717 719 721 720 721 719 718 719 718 720 725 733 736 735 746 739 713 709 715 714 718 714 710 721 731 726 725 735 733 724 733 750 757 750 754 771 764 751 748 738 737 739 725 723 728 725 728 731 732 736 736 739 743 743 745 747
759 756 754 751 749 749 751 752 754 756 755 757 765 763 750 740 732 726 718 712 715 715 721 729 724 723 728 726 723 717 714 720 720 722 724 722 718 713 712 715 717 720 720 726 733 733 741 743 721 714 722 714 709 715 714 714 722 730 735 730 720 722 729 740 758 760 763 774 762 747 751 745 744 747 732 726 731 729 730 731 732 737 739 743 745 745 748 749
758 756 752 747 745 745 747 750 751 752 754 758 763 757 745 736 727 720 713 710 713 716 723 732 726 721 726 730 728 720 718 725 723 721 724 723 719 713 710 715 720 721 719 724 733 730 734 747 733 718 722 714 705 718 727 718 714 723 726 718 721 741 746 744 758 767 770 775 764 751 748 742 743 745 735 731 734 731 729 729 733 738 740 745 748 748 750 750
758 756 750 742 740 743 745 749 750 750 755 760 760 752 741 734 725 718 713 710 715 720 724 725 722 722 725 727 728 722 720 725 724 724 724 721 724 722 715 718 722 723 722 724 731 729 729 747 748 726 716 714 710 722 735 729 716 715 719 719 722 736 744 745 748 754 764 771 768 761 753 746 744 738 732 733 731 729 731 730 733 737 739 745 749 750 751 752
756 754 746 737 737 742 745 747 749 752 756 756 752 745 735 728 721 713 710 711 718 723 724 722 719 722 724 723 724 723 721 721 720 723 723 717 726 731 721 719 724 724 724 725 729 730 729 744 754 736 721 722 724 726 730 731 725 723 727 731 731 729 733 740 740 740 749 761 765 766 762 754 743 731 729 733 730 731 732 731 733 737 741 747 750 752 753 753
754 753 744 736 738 742 744 749 750 750 752 749 744 739 732 726 721 715 710 712 719 721 719 719 719 721 723 722 723 723 722 722 720 721 723 719 725 731 722 719 723 723 726 730 731 733 736 744 752 747 737 736 730 720 717 721 724 727 731 733 735 732 736 752 757 745 741 752 760 765 765 757 742 730 729 731 731 733 733 731 735 739 744 749 752 754 755 755
755 752 741 736 740 741 744 749 747 744 746 743 736 732 728 724 723 721 716 715 719 720 717 718 719 721 723 723 723 722 722 726 723 723 725 722 723 727 721 719 722 723 730 735 732 733 738 744 751 750 742 735 726 715 713 715 717 724 728 728 730 732 736 755 764 752 745 750 752 756 764 760 746 733 731 730 729 733 734 732 736 742 747 751 753 755 756 756
751 745 738 738 740 740 746 750 745 741 741 735 729 725 722 721 723 723 720 717 718 720 720 719 718 721 722 721 722 723 724 728 727 724 725 723 724 727 724 723 726 727 733 737 736 738 743 747 754 754 742 731 724 716 712 712 717 727 729 726 729 733 734 740 745 744 750 753 751 758 765 760 748 736 732 732 729 731 734 733 738 746 749 752 754 756 757 757
749 743 737 739 739 739 746 750 746 742 738 732 729 726 722 721 722 724 723 720 717 717 720 720 719 721 721 718 720 722 726 732 731 726 723 724 727 727 725 728 731 731 735 740 741 745 750 750 754 760 758 749 740 732 725 720 721 728 732 730 731 731 732 735 734 741 754 754 753 762 765 757 748 738 733 734 732 732 733 732 739 747 750 752 755 756 757 758
753 745 737 735 738 739 742 742 740 739 736 734 733 731 728 725 723 723 724 723 719 717 721 724 721 721 721 720 722 722 724 729 730 727 723 723 727 728 726 730 733 733 738 741 739 743 751 751 752 762 769 766 758 749 742 737 733 734 735 734 734 733 737 741 741 750 761 755 751 758 760 754 747 740 739 738 736 737 735 734 739 746 749 752 755 757 758 758
755 748 740 734 734 736 737 734 733 736 736 739 741 736 733 732 726 722 724 728 724 720 724 726 723 724 727 726 729 730 726 725 727 728 727 726 727 727 727 729 733 738 743 744 740 744 752 754 753 758 761 759 754 745 737 739 743 744 741 737 735 735 737 742 749 756 758 756 756 754 752 754 751 745 746 745 741 742 740 738 741 746 750 752 755 757 758 758
754 750 746 746 743 738 736 732 731 733 733 737 741 737 735 736 731 727 729 731 727 723 728 729 725 729 734 734 737 739 734 730 729 730 729 727 725 727 729 731 734 740 744 743 742 747 757 760 756 756 755 750 747 743 738 740 745 744 743 741 738 737 738 744 753 754 751 758 764 752 747 757 755 747 748 747 746 746 745 744 744 745 750 753 755 757 758 759
757 753 748 754 755 746 742 740 737 736 734 736 738 736 737 738 736 734 734 733 729 728 734 737 733 732 733 733 737 742 740 739 738 735 732 730 730 733 735 734 736 742 744 744 743 747 758 763 756 754 754 748 744 743 740 741 742 740 742 742 740 740 742 746 750 747 747 757 760 750 750 758 753 748 747 746 746 747 747 748 748 746 748 751 754 757 758 758
764 760 754 757 758 750 747 746 744 743 741 741 742 741 742 743 741 738 735 737 741 736 736 743 741 734 732 730 732 740 746 749 750 746 742 741 739 740 742 741 740 741 741 744 744 745 756 762 756 754 755 749 745 743 740 741 743 742 741 739 738 739 740 741 743 741 743 750 750 746 751 753 748 746 746 744 745 744 744 747 749 748 749 749 752 756 757 757
773 771 767 764 759 751 748 747 748 747 743 743 747 745 744 745 745 741 738 743 752 748 743 747 745 739 736 730 730 743 752 755 757 754 751 751 749 747 748 747 744 742 740 742 744 747 757 762 756 757 762 758 750 746 744 745 746 745 742 739 739 741 741 742 744 743 745 749 748 748 754 754 746 743 744 745 745 744 743 745 746 749 750 749 751 754 756 756
781 778 775 772 765 756 751 748 746 747 747 749 751 749 748 748 745 744 743 744 749 751 750 751 750 747 742 734 738 751 755 754 756 754 750 751 750 748 749 747 746 747 746 745 747 751 759 762 759 762 770 765 754 750 748 745 745 747 746 745 745 745 746 747 744 743 747 752 752 754 758 757 750 745 744 745 747 748 748 746 747 749 748 747 749 751 753 755
784 780 776 774 769 760 752 747 746 752 758 758 755 752 751 749 744 745 752 750 747 748 752 755 755 753 750 750 754 758 757 754 755 753 750 749 747 745 746 745 744 748 750 751 752 753 756 761 762 766 772 767 757 753 752 752 759 760 753 750 749 746 748 751 747 742 745 750 755 757 755 753 753 752 749 750 754 757 755 752 753 753 749 747 747 748 749 753